Tracking 31080 objects as of 20-Jul-2025
HD Live streaming from Space Station
objects crossing your sky now

JILIN-01-08

Track JILIN-01-08 now!
10-day predictions


NORAD ID: 43160
Int'l Code: 2018-008F
Perigee: 484.6 km
Apogee: 494.7 km
Inclination: 97.2 °
Period: 94.3 minutes
Semi major axis: 6860 km
RCS: Unknown
Launch date: January 19, 2018
Source: People's Republic of China (PRC)
Launch site: Jiuquan Satellite Launch Center, China (JSC)
Your satellite tracking list
Your tracking list is empty




NASA's NSSDC Master Catalog

Two Line Element Set (TLE):
1 43160U 18008F   25201.16240419  .00005919  00000-0  22077-3 0  9993
2 43160  97.2073 225.4720 0007364 165.8245 194.3203 15.27760087414157
Source of the keplerian elements: AFSPC